KO4RJX-11 Weather Reports


time (UTC)temp
F
wind
direction
speed
knots
gust
knots
rain 1hr
in
rain 24hr
in
rain mn
in
humidity
%
barometer
mb
20260502221313 53 171 0.9 2.6 0.00 0.00 0.68 88 1006.6
20260502220633 53 98 1.7 3.5 0.00 0.00 0.68 87 1006.6
20260502215953 53 86 1.7 3.5 0.00 0.00 0.68 88 1006.6
20260502215314 53 97 0.9 3.5 0.00 0.00 0.68 88 1006.6
20260502214633 53 57 1.7 3.5 0.00 0.00 0.68 86 1006.2
20260502213953 53 101 1.7 3.5 0.00 0.00 0.68 88 1006.2
20260502213313 53 67 1.7 3.5 0.00 0.00 0.68 89 1006.2
20260502212634 53 81 1.7 2.6 0.00 0.00 0.68 88 1006.6
20260502211953 53 100 1.7 3.5 0.00 0.00 0.68 85 1006.6
20260502211524 53 52 1.7 3.5 0.00 0.00 0.68 84 1006.9
20260502210633 53 32 1.7 4.3 0.00 0.00 0.68 84 1006.6
20260502205953 53 93 1.7 4.3 0.00 0.00 0.68 82 1006.6
20260502205313 53 61 2.6 5.2 0.00 0.00 0.68 85 1006.6
20260502204634 52 61 1.7 4.3 0.00 0.00 0.68 86 1006.6
20260502203953 53 58 2.6 5.2 0.00 0.00 0.68 82 1006.6
20260502203313 53 93 1.7 4.3 0.00 0.00 0.68 88 1006.6
20260502202633 53 38 2.6 5.2 0.00 0.00 0.68 86 1006.6
20260502201953 53 43 2.6 5.2 0.00 0.00 0.68 89 1006.6
20260502201313 53 63 1.7 3.5 0.00 0.00 0.68 90 1006.6
20260502200633 53 79 1.7 5.2 0.00 0.00 0.68 89 1006.6
20260502195953 53 30 2.6 6.1 0.00 0.00 0.68 89 1006.6
20260502195313 53 43 2.6 6.1 0.00 0.00 0.68 86 1006.9
20260502194848 53 67 2.6 7.0 0.00 0.00 0.68 88 1006.9
20260502193953 53 43 2.6 5.2 0.00 0.00 0.68 89 1006.9
20260502193313 53 32 2.6 5.2 0.00 0.00 0.67 89 1006.9
20260502192633 53 78 1.7 5.2 0.00 0.00 0.67 92 1007.3
20260502191954 52 65 1.7 6.1 0.00 0.00 0.67 92 1007.3
20260502191313 53 78 1.7 6.1 0.00 0.00 0.67 90 1007.3
20260502190633 52 14 2.6 5.2 0.00 0.00 0.67 92 1007.3
20260502185953 52 29 2.6 7.8 0.00 0.00 0.67 92 1007.3
20260502185313 52 46 4.3 7.8 0.00 0.00 0.67 91 1007.3
20260502184634 52 20 1.7 7.0 0.00 0.00 0.67 94 1007.3
20260502183953 52 47 3.5 7.0 0.00 0.00 0.67 94 1007.3
20260502183524 52 39 4.3 8.7 0.00 0.00 0.66 95 1007.3
20260502182633 51 41 3.5 7.8 0.00 0.00 0.66 95 1007.6
20260502181953 52 26 3.5 8.7 0.00 0.00 0.66 92 1007.6
20260502181313 52 6 4.3 8.7 0.00 0.00 0.65 93 1007.6
20260502180633 51 37 4.3 7.0 0.00 0.00 0.65 93 1007.6
20260502163953 51 37 4.3 7.0 0.00 0.00 0.60 95 1008.3
20260502163526 51 41 2.6 6.1 0.00 0.00 0.59 97 1008.6
20260502162633 51 33 3.5 7.0 0.00 0.00 0.58 96 1008.6
20260502161953 51 50 1.7 6.1 0.00 0.00 0.55 98 1008.6
20260502161313 51 70 2.6 7.0 0.00 0.00 0.53 96 1008.6
20260502160843 51 43 3.5 7.8 0.00 0.00 0.51 96 1008.6
20260502151953 52 42 4.3 8.7 0.00 0.00 0.46 94 1008.3
20260502151313 52 32 3.5 7.8 0.00 0.00 0.45 95 1008.6
20260502150844 52 17 3.5 10.4 0.00 0.00 0.44 97 1008.6
20260502130634 52 21 3.5 7.0 0.00 0.00 0.29 96 1007.6
20260502123313 52 15 3.5 7.0 0.00 0.00 0.25 95 1006.9
20260502122633 52 26 2.6 7.0 0.00 0.00 0.24 95 1006.9
20260502121953 52 33 2.6 7.0 0.00 0.00 0.23 95 1006.9
20260502121313 52 7 3.5 6.1 0.00 0.00 0.21 96 1006.9
20260502120633 52 16 4.3 7.8 0.00 0.00 0.20 93 1006.9
20260502115313 52 12 3.5 9.6 0.00 0.00 0.18 94 1006.9
20260502114633 52 5 3.5 9.6 0.00 0.00 0.17 92 1006.9
20260502113954 52 4 6.1 10.4 0.00 0.00 0.16 90 1006.9
20260502113314 52 1 6.1 10.4 0.00 0.00 0.15 90 1007.3
20260502112633 53 357 5.2 8.7 0.00 0.00 0.13 90 1007.3
20260502111953 53 356 4.3 10.4 0.00 0.00 0.12 90 1007.3
20260502111313 53 358 6.1 10.4 0.00 0.00 0.10 89 1007.3
20260502110633 53 354 5.2 10.4 0.00 0.00 0.09 88 1007.3
20260502105953 53 358 6.1 9.6 0.00 0.00 0.07 88 1007.3
20260502105313 53 358 5.2 10.4 0.00 0.00 0.06 88 1007.3
20260502104633 53 357 5.2 10.4 0.00 0.00 0.04 88 1007.3
20260502103953 53 358 5.2 10.4 0.00 0.00 0.02 90 1007.3
20260502103313 53 358 6.1 11.3 0.00 0.00 0.02 89 1007.3
20260502102633 53 354 6.1 11.3 0.00 0.00 0.01 91 1007.3
20260502101953 53 356 5.2 7.8 0.00 0.00 0.00 90 1007.3
20260502101313 54 349 3.5 6.1 0.00 0.00 0.00 88 1007.3
20260502100847 53 342 2.6 7.8 0.00 0.00 0.00 88 1007.3
20260502091313 53 351 1.7 5.2 0.00 0.00 0.00 92 1007.3
20260502090633 53 0 3.5 7.8 0.00 0.00 0.00 91 1006.9
20260502090203 53 358 4.3 7.0 0.00 0.00 0.00 91 1006.9
20260502071313 52 24 1.7 2.6 0.00 0.00 0.00 95 1006.2
20260502070634 52 53 0.9 1.7 0.00 0.00 0.00 96 1006.2
20260502065953 52 13 0.9 2.6 0.00 0.00 0.00 96 1006.9
20260502065313 52 34 1.7 2.6 0.00 0.00 0.00 95 1006.6
20260502064634 52 21 1.7 2.6 0.00 0.00 0.00 94 1006.9
20260502063953 52 57 0.9 1.7 0.00 0.00 0.00 95 1006.6
20260502063313 52 32 1.7 1.7 0.00 0.00 0.00 95 1006.9
20260502062847 52 64 0.9 2.6 0.00 0.00 0.00 95 1006.6
20260502061953 53 0 0.9 1.7 0.00 0.00 0.00 95 1006.9
20260502061314 53 348 0.9 1.7 0.00 0.00 0.00 96 1006.9
20260502060633 53 66 0.0 0.9 0.00 0.00 0.00 97 1006.9
20260502055953 53 188 0.0 0.9 0.00 0.00 0.00 97 1006.9
20260502055526 53 173 0.0 0.9 0.00 0.00 0.00 96 1007.3
20260502054846 52 27 0.0 0.9 0.00 0.00 0.00 96 1007.3
20260502053953 52 276 0.0 0.9 0.00 0.00 0.00 96 1007.3
20260502053523 52 50 0.0 0.9 0.00 0.00 0.00 96 1007.3
20260502052633 52 79 0.0 1.7 0.00 0.00 0.00 97 1007.3
20260502051953 52 32 0.0 1.7 0.00 0.00 0.00 97 1007.3
20260502051313 52 348 0.9 1.7 0.00 0.00 0.00 96 1007.3
20260502050633 52 52 0.9 1.7 0.00 0.00 0.00 96 1007.6
20260502045953 53 340 0.9 1.7 0.00 0.00 0.00 96 1007.6
20260502045313 52 23 0.0 1.7 0.00 0.00 0.00 96 1007.6
20260502044633 52 14 0.9 1.7 0.00 0.00 0.00 96 1007.6
20260502043953 52 26 0.0 0.9 0.00 0.00 0.00 97 1007.6
20260502043313 52 132 0.0 0.9 0.00 0.00 0.00 96 1007.6
20260502042634 52 174 0.0 1.7 0.00 0.00 0.00 96 1007.6
20260502041953 52 352 0.0 1.7 0.00 0.00 0.00 96 1007.9
20260502041313 52 355 0.9 1.7 0.00 0.00 0.00 96 1007.6
20260502040846 52 177 0.0 0.9 0.00 0.00 0.00 96 1007.6
20260502035953 52 55 0.9 1.7 0.00 0.00 0.07 96 1007.6
20260502035313 52 31 0.9 1.7 0.00 0.00 0.07 96 1007.6
20260502034843 52 103 0.9 1.7 0.00 0.00 0.07 96 1007.6
20260502033953 52 137 0.9 1.7 0.00 0.00 0.07 98 1007.6
20260502033313 52 182 0.9 1.7 0.00 0.00 0.07 98 1007.9
20260502032633 52 122 0.9 0.9 0.00 0.00 0.07 97 1007.9
20260502032205 52 42 0.0 0.9 0.00 0.00 0.07 98 1007.9
20260502031313 52 134 0.0 0.9 0.00 0.00 0.07 97 1008.3
20260502030846 52 223 0.0 0.9 0.00 0.00 0.07 96 1008.3
20260502025953 52 110 0.0 0.9 0.00 0.00 0.07 95 1008.3
20260502025313 52 55 0.9 0.9 0.00 0.00 0.07 96 1008.3
20260502024634 52 246 0.0 0.9 0.00 0.00 0.07 94 1008.3
20260502024204 52 17 0.9 1.7 0.00 0.00 0.07 94 1008.3
20260502023313 52 16 0.9 1.7 0.00 0.00 0.07 95 1008.3
20260502022633 52 354 0.9 0.9 0.00 0.00 0.07 94 1008.3
20260502021953 52 60 0.0 1.7 0.00 0.00 0.07 93 1008.3
20260502021313 52 350 0.9 1.7 0.00 0.00 0.07 93 1008.3
20260502020847 52 340 0.9 1.7 0.00 0.00 0.07 94 1008.6
20260502015953 52 9 0.9 1.7 0.00 0.00 0.07 92 1008.3
20260502015313 52 97 0.0 0.9 0.00 0.00 0.07 89 1008.3
20260502014633 52 27 0.0 1.7 0.00 0.00 0.07 88 1008.3
20260502013953 52 204 0.9 2.6 0.00 0.00 0.07 89 1008.3
20260502013313 52 158 1.7 2.6 0.00 0.00 0.07 89 1007.9
20260502012633 52 167 1.7 2.6 0.00 0.00 0.07 92 1008.3
20260502011953 52 175 0.9 1.7 0.00 0.00 0.07 92 1008.3
20260502011313 52 169 0.9 1.7 0.00 0.00 0.07 92 1007.9
20260502010633 52 161 0.9 1.7 0.00 0.00 0.07 92 1007.9
20260502005953 53 121 0.9 1.7 0.00 0.00 0.07 93 1007.9
20260502005313 53 192 0.9 1.7 0.00 0.00 0.07 92 1007.9
20260502004634 53 229 0.9 1.7 0.00 0.00 0.07 90 1007.9
20260502003953 54 224 0.9 1.7 0.00 0.00 0.07 89 1007.9
20260502003314 53 87 0.9 1.7 0.00 0.00 0.07 85 1007.6
20260502002634 54 51 0.9 1.7 0.00 0.00 0.07 85 1007.6
20260502002207 54 93 0.9 1.7 0.00 0.00 0.07 84 1007.6
20260502001314 54 161 0.9 1.7 0.00 0.00 0.07 85 1007.3
20260502000633 54 137 0.9 3.5 0.00 0.00 0.07 83 1007.6
20260502000204 54 136 0.9 2.6 0.00 0.00 0.07 82 1007.6
20260501235313 54 148 0.9 2.6 0.00 0.00 0.07 84 1007.6
20260501234633 54 173 0.9 2.6 0.00 0.00 0.07 82 1007.9
20260501233953 54 162 0.9 1.7 0.00 0.00 0.07 81 1007.9
20260501233317 55 112 0.9 2.6 0.00 0.00 0.07 79 1007.6
20260501232847 55 157 1.7 2.6 0.00 0.00 0.07 79 1007.9
20260501231953 55 160 0.9 4.3 0.00 0.00 0.07 80 1007.9
20260501231523 55 154 2.6 4.3 0.00 0.00 0.07 79 1007.9
20260501230633 56 46 0.0 2.6 0.00 0.00 0.07 77 1007.9
20260501225953 55 156 0.9 2.6 0.00 0.00 0.07 78 1007.6
20260501225313 56 120 0.9 2.6 0.00 0.00 0.07 75 1007.6
20260501224632 55 151 0.9 3.5 0.00 0.00 0.07 77 1007.9
20260501223953 55 134 1.7 3.5 0.00 0.00 0.07 77 1007.9
20260501223312 55 163 2.6 4.3 0.00 0.00 0.07 78 1007.9
20260501222843 55 151 1.7 3.5 0.00 0.00 0.07 75 1007.9
20260501222203 55 154 0.9 2.6 0.00 0.00 0.07 76 1008.3